Wind_Speed
30 28 25 26 26 25 25 25 24 23 22 20 22 23 21 22 21 20 20 17 17 18 18 17 17 16 16 16 15 14 13 13 12 11 11 10 9 9 9 10 9 9 9 10
32 31 29 29 28 28 27 27 27 26 25 24 25 25 24 25 23 22 20 19 19 19 19 19 18 17 17 16 16 15 13 12 12 12 11 10 10 10 10 11 11 11 11 11
34 33 33 33 30 30 29 28 28 28 27 27 28 27 26 26 25 24 23 22 20 20 20 20 20 18 18 17 17 15 14 13 13 13 12 12 12 12 12 12 12 12 12 12
34 34 37 34 32 32 33 32 32 32 30 30 30 30 29 28 27 27 25 24 22 21 22 21 20 19 18 18 17 16 15 15 14 14 13 13 13 13 13 13 14 14 14 14
34 34 35 34 32 31 32 33 33 34 33 32 31 31 31 31 30 30 28 26 25 24 23 22 21 20 20 19 18 17 16 16 15 15 14 14 15 15 15 16 15 15 15 15
36 35 35 34 31 31 32 35 34 33 33 33 32 32 32 33 31 31 29 28 26 25 24 23 22 21 21 20 19 18 18 17 17 17 17 16 16 16 17 16 16 16 16 16
37 37 36 33 32 31 33 35 34 34 34 34 33 32 32 33 32 31 30 29 28 26 25 25 23 22 21 20 20 20 20 19 19 19 18 18 18 18 18 18 18 18 18 18
37 37 37 35 34 35 35 35 35 35 34 34 33 32 32 32 32 31 30 30 29 27 26 25 25 24 23 22 22 21 21 20 21 21 20 20 20 20 20 20 20 20 20 20
37 36 36 36 36 36 37 37 36 36 36 35 35 34 33 33 32 32 32 31 30 28 28 27 26 26 25 25 24 24 23 22 22 22 22 22 22 22 22 22 22 22 22 22
38 39 38 36 36 37 38 38 38 37 36 36 36 35 34 34 33 33 33 32 31 29 28 28 29 28 27 27 26 26 25 24 24 24 23 23 23 23 23 23 23 23 24 24
39 38 38 37 37 37 38 39 38 37 36 35 36 35 34 33 33 32 32 32 31 31 30 30 30 30 30 29 28 28 27 26 25 24 24 24 24 24 24 24 25 25 26 26
37 38 38 38 37 38 39 39 39 38 38 36 36 35 35 34 33 32 32 31 32 31 31 31 31 31 31 31 30 30 29 28 27 26 26 26 25 25 25 25 26 27 28 28
36 37 38 37 38 38 39 38 38 38 37 37 36 35 34 34 34 34 33 32 32 32 31 32 32 32 32 31 31 30 30 29 28 28 28 28 27 27 27 27 28 29 30 30
34 34 35 35 36 36 36 37 37 37 37 36 36 36 35 34 34 34 34 33 32 32 33 32 32 32 32 32 32 31 31 31 31 31 30 29 30 29 29 29 30 30 31 31
31 32 33 34 35 36 35 35 36 36 36 36 36 36 35 34 34 34 34 34 33 33 33 33 32 31 32 32 32 32 32 32 32 33 33 32 32 32 32 32 32 32 33 32
32 32 32 33 34 34 34 34 35 36 35 35 35 35 35 35 35 35 34 34 34 34 33 33 32 31 32 32 33 33 33 33 34 34 34 33 33 34 34 34 33 34 33 33
30 31 31 32 32 32 32 34 35 35 33 33 33 34 35 35 35 36 35 34 34 34 33 33 33 33 33 34 34 34 35 35 35 35 35 35 34 34 35 35 35 35 34 33
29 30 31 31 31 32 32 32 33 32 32 32 32 33 34 35 34 34 34 35 34 34 33 33 33 34 34 34 34 35 35 36 36 36 36 35 35 34 35 35 35 35 34 33
28 29 30 31 31 31 31 31 31 32 31 31 31 32 32 33 33 33 34 34 34 34 34 34 34 35 35 34 34 35 36 36 36 36 35 35 34 34 35 35 35 35 35 33
26 26 28 29 30 31 31 31 31 31 31 31 31 31 31 32 32 32 32 32 32 33 33 34 34 35 35 35 35 35 35 35 35 35 34 33 33 34 34 34 34 34 34 34
24 24 25 27 28 29 29 30 30 30 29 30 30 30 30 30 30 30 31 31 31 32 32 33 34 34 35 36 37 36 36 35 35 34 33 33 33 32 32 32 33 33 33 32
22 22 23 24 25 24 26 27 28 28 28 28 28 29 29 29 29 30 30 31 32 32 33 33 33 34 34 36 37 37 36 36 34 33 33 32 32 31 30 30 31 32 33 31
18 19 21 21 22 24 25 25 25 27 27 28 28 28 28 28 28 28 29 30 31 32 33 33 33 33 34 35 35 36 35 34 32 32 31 31 31 32 32 32 32 31 30 31
15 17 18 18 19 20 21 22 23 24 25 26 27 27 27 27 27 27 27 28 29 31 32 32 32 33 33 32 31 32 32 31 30 30 30 30 30 30 31 31 30 29 29 30
13 15 16 17 18 18 19 19 20 21 22 23 23 24 24 25 26 26 26 26 27 28 29 29 29 28 29 29 28 27 27 28 29 29 30 30 31 31 31 30 29 30 30 30
11 12 13 14 15 16 17 17 18 18 19 20 21 22 23 24 24 24 24 25 26 26 26 26 26 26 25 25 25 26 26 27 28 28 29 30 31 31 30 29 30 31 32 31
9 10 11 12 13 13 14 14 15 16 16 17 18 19 19 20 21 21 22 22 23 23 24 25 25 24 23 23 23 23 24 25 26 27 28 28 29 29 29 30 31 32 32 33
Wind_Direction
234 232 233 240 242 242 241 239 238 240 243 251 264 268 272 274 274 276 275 277 282 286 289 292 294 295 297 297 297 296 296 296 296 298 298 293 294 294 296 298 299 299 299 302
238 235 232 237 241 242 243 243 243 243 244 247 255 264 267 271 275 277 275 277 278 281 284 288 290 290 290 291 292 294 294 293 291 293 295 289 288 291 290 291 292 295 297 297
240 240 238 237 237 241 244 244 246 248 249 249 253 257 262 267 271 275 275 275 276 278 281 282 285 286 286 286 286 287 289 289 287 288 290 287 286 289 287 289 290 293 296 295
241 241 242 239 238 241 243 243 244 245 247 249 253 256 258 262 266 268 271 272 274 276 278 279 280 281 281 282 282 284 285 286 286 284 284 285 286 288 289 291 291 291 291 292
242 244 246 242 239 241 243 244 245 246 248 249 253 256 258 260 262 264 267 269 270 273 275 276 276 275 275 278 279 282 283 284 284 283 281 282 285 286 287 288 290 290 290 292
242 244 245 243 243 243 243 244 246 247 248 250 253 255 257 260 262 263 263 264 265 266 269 271 271 271 271 273 276 278 280 279 281 282 280 280 282 284 284 285 288 288 291 292
244 244 245 244 242 242 242 245 247 249 248 249 252 254 257 260 261 262 261 261 262 262 264 267 266 266 268 270 271 273 275 276 279 279 279 278 278 280 283 283 285 287 289 292
247 246 245 243 240 239 241 245 248 250 251 251 253 255 257 258 258 259 259 260 260 259 260 262 263 263 266 268 269 271 273 275 276 276 277 278 278 278 280 283 284 286 288 290
246 246 246 242 238 238 242 245 247 250 252 252 254 255 256 257 256 256 257 258 258 258 258 258 260 262 264 265 266 269 270 273 275 275 277 278 279 278 278 281 283 285 287 288
243 242 240 241 239 240 243 245 246 248 251 252 254 254 254 254 255 254 255 257 257 257 257 258 258 260 263 263 263 266 269 271 275 276 277 278 280 279 279 280 280 283 286 287
243 243 241 240 241 242 243 245 247 249 250 250 252 252 253 253 253 254 254 255 256 256 257 257 258 259 261 261 263 264 266 269 272 274 276 278 279 279 279 279 280 283 285 286
241 242 241 241 242 243 245 246 247 248 249 250 251 252 252 252 252 253 254 254 256 256 256 257 258 259 260 261 263 264 266 268 270 272 275 277 278 279 279 280 282 283 285 286
243 242 240 242 243 245 246 247 247 248 249 250 250 251 252 252 252 253 254 255 256 257 257 257 258 260 261 262 263 264 266 269 269 271 274 275 277 278 278 279 281 283 285 286
247 244 242 242 243 244 246 247 248 248 248 250 251 252 252 252 252 252 253 254 255 256 257 258 259 260 261 261 263 264 266 268 270 271 273 274 275 277 278 279 280 281 282 283
248 246 244 243 243 245 246 246 245 245 246 248 249 249 250 251 251 252 252 252 253 255 257 257 258 260 261 262 264 265 265 267 269 272 272 274 276 276 277 279 279 279 280 281
248 246 245 245 244 244 244 243 245 246 247 247 248 249 250 251 251 252 253 253 253 254 256 257 257 258 261 262 262 264 264 266 268 271 272 273 275 276 276 278 279 280 280 280
246 244 244 244 243 243 243 243 244 245 246 248 249 250 251 252 252 252 253 253 253 254 255 256 257 257 259 261 262 263 265 268 269 270 272 273 275 277 279 281 282 280 279 279
245 243 243 242 243 243 244 245 246 246 247 248 249 251 252 253 253 252 252 252 253 253 255 257 258 258 258 260 262 264 265 267 270 272 273 274 276 277 279 281 281 281 280 280
247 245 243 242 242 243 243 243 244 245 246 248 249 252 253 253 253 252 252 252 253 254 255 257 258 258 259 260 262 264 266 267 268 270 272 274 277 278 279 280 281 282 281 280
248 244 242 241 241 242 243 243 243 245 246 248 250 252 252 252 253 253 253 253 254 255 255 257 258 259 260 261 264 265 267 268 269 269 271 272 275 277 278 277 278 280 280 278
250 247 244 242 244 244 244 244 244 245 247 248 250 251 252 252 252 254 254 254 254 254 255 257 260 260 261 263 264 265 266 267 268 269 271 273 274 274 275 275 277 279 279 277
249 246 245 243 244 245 246 246 246 247 247 248 250 252 253 254 255 256 256 256 255 256 258 260 261 261 262 263 263 265 267 268 268 268 270 273 273 273 275 278 282 282 280 279
247 246 246 245 244 245 246 246 248 247 247 248 250 252 253 254 255 257 258 258 258 260 262 262 262 262 264 265 265 265 266 267 267 267 268 271 274 274 276 279 282 282 282 281
252 249 245 243 245 245 244 246 249 248 247 248 250 252 254 255 256 258 259 260 261 262 262 261 261 262 264 265 265 265 264 265 266 268 270 271 273 276 278 281 282 283 283 283
250 246 243 243 243 245 247 247 250 251 250 250 250 252 254 256 257 259 261 263 263 263 261 261 261 261 263 263 263 263 264 265 266 267 269 271 274 276 279 281 283 283 283 283
253 247 244 244 245 247 249 251 254 253 253 254 255 255 256 257 258 259 261 262 261 261 261 261 262 261 261 262 262 262 265 267 269 270 271 273 275 277 278 280 281 283 283 283
245 246 245 242 245 249 251 252 253 254 254 255 255 256 257 257 256 258 259 259 260 262 262 261 261 261 262 262 263 265 266 267 269 273 275 275 276 279 281 281 282 283 284 283
Height
5867 5872 5875 5878 5880 5883 5885 5887 5890 5892 5894 5894 5892 5891 5891 5891 5891 5892 5892 5891 5892 5892 5892 5892 5891 5890 5889 5889 5888 5887 5886 5886 5885 5884 5883 5883 5882 5882 5881 5880 5880 5879 5879 5878
5859 5863 5866 5870 5873 5876 5879 5881 5883 5885 5887 5888 5886 5886 5886 5886 5886 5887 5887 5887 5888 5888 5888 5888 5887 5887 5886 5885 5885 5884 5883 5883 5883 5882 5881 5880 5880 5879 5879 5878 5878 5877 5876 5876
5850 5855 5857 5860 5866 5869 5871 5874 5876 5878 5880 5880 5879 5880 5880 5881 5882 5882 5883 5883 5883 5883 5883 5883 5883 5883 5882 5882 5881 5881 5880 5880 5880 5879 5878 5878 5877 5877 5876 5876 5875 5875 5874 5873
5841 5845 5847 5854 5858 5861 5863 5865 5868 5869 5871 5873 5873 5873 5874 5875 5876 5876 5877 5878 5878 5878 5878 5878 5878 5878 5878 5878 5877 5877 5877 5876 5876 5876 5875 5875 5874 5874 5874 5873 5872 5872 5871 5870
5832 5835 5838 5844 5848 5852 5854 5856 5858 5860 5862 5864 5864 5865 5866 5867 5869 5870 5871 5872 5872 5873 5873 5873 5873 5873 5874 5873 5873 5873 5873 5873 5872 5872 5872 5871 5871 5870 5870 5869 5869 5868 5867 5866
5822 5825 5829 5835 5839 5842 5846 5846 5849 5851 5853 5855 5856 5858 5859 5859 5861 5862 5864 5865 5866 5867 5867 5867 5868 5868 5868 5868 5868 5869 5869 5869 5868 5868 5867 5867 5867 5866 5865 5865 5865 5864 5863 5862
5812 5815 5819 5826 5829 5833 5836 5838 5840 5842 5844 5846 5847 5849 5850 5851 5853 5855 5856 5858 5859 5860 5861 5861 5862 5862 5862 5862 5863 5864 5864 5864 5863 5863 5862 5862 5861 5861 5861 5860 5860 5859 5858 5858
5803 5806 5812 5816 5819 5822 5824 5827 5830 5832 5834 5837 5838 5840 5841 5843 5845 5846 5848 5849 5851 5852 5854 5855 5855 5856 5857 5857 5857 5858 5858 5858 5858 5857 5857 5856 5856 5855 5855 5855 5854 5853 5853 5852
5794 5798 5800 5804 5807 5810 5813 5817 5820 5822 5824 5826 5828 5831 5833 5834 5836 5838 5839 5841 5843 5844 5846 5847 5848 5849 5850 5850 5851 5851 5851 5851 5851 5851 5851 5850 5849 5849 5849 5848 5848 5847 5846 5846
5782 5785 5789 5793 5797 5800 5803 5806 5809 5812 5815 5817 5818 5821 5824 5826 5828 5830 5831 5833 5834 5836 5838 5839 5840 5842 5843 5843 5843 5844 5844 5844 5844 5844 5844 5843 5843 5842 5842 5842 5841 5841 5840 5839
5770 5775 5779 5783 5786 5790 5793 5796 5799 5802 5805 5807 5809 5811 5814 5817 5819 5821 5823 5824 5826 5827 5829 5831 5832 5834 5835 5836 5836 5837 5837 5837 5837 5837 5837 5836 5835 5835 5835 5835 5834 5834 5833 5832
5760 5764 5768 5772 5775 5779 5782 5785 5789 5792 5795 5797 5800 5802 5805 5807 5810 5812 5813 5815 5817 5818 5820 5822 5824 5825 5827 5827 5828 5829 5829 5829 5829 5829 5829 5829 5828 5828 5827 5827 5827 5826 5825 5824
5749 5752 5756 5761 5765 5768 5771 5774 5778 5781 5784 5787 5789 5792 5795 5798 5800 5802 5804 5806 5808 5810 5811 5813 5815 5816 5818 5819 5820 5820 5820 5821 5821 5821 5821 5821 5821 5820 5820 5820 5819 5818 5817 5816
5741 5743 5747 5751 5754 5757 5760 5764 5767 5770 5773 5777 5779 5782 5785 5788 5790 5793 5795 5797 5799 5801 5802 5804 5805 5807 5809 5810 5811 5811 5812 5812 5813 5813 5813 5813 5813 5812 5812 5811 5811 5810 5809 5808
5733 5735 5738 5742 5744 5747 5750 5753 5756 5759 5762 5765 5769 5772 5775 5778 5780 5783 5785 5787 5789 5791 5793 5795 5796 5798 5799 5800 5801 5802 5803 5804 5804 5804 5804 5804 5804 5803 5803 5803 5802 5801 5800 5799
5724 5726 5729 5732 5734 5738 5741 5744 5747 5749 5752 5755 5758 5762 5765 5768 5770 5773 5775 5778 5780 5782 5784 5786 5787 5788 5790 5791 5792 5793 5793 5794 5794 5794 5794 5794 5794 5794 5794 5793 5792 5792 5790 5790
5716 5718 5720 5723 5726 5729 5732 5735 5738 5741 5743 5746 5750 5752 5755 5758 5760 5763 5765 5768 5770 5772 5774 5776 5778 5779 5780 5781 5781 5782 5783 5784 5784 5784 5785 5785 5784 5784 5784 5783 5782 5781 5781 5779
5708 5710 5713 5715 5718 5721 5724 5726 5729 5732 5735 5738 5741 5743 5746 5748 5751 5753 5755 5757 5760 5762 5764 5766 5767 5768 5770 5770 5771 5772 5773 5774 5774 5775 5775 5775 5775 5774 5774 5773 5772 5771 5770 5769
5700 5702 5704 5707 5710 5713 5715 5718 5721 5724 5727 5730 5732 5734 5737 5739 5741 5743 5745 5747 5750 5752 5754 5756 5757 5758 5759 5760 5761 5762 5762 5763 5764 5765 5765 5765 5765 5764 5764 5763 5761 5760 5759 5758
5692 5694 5696 5699 5702 5705 5708 5710 5713 5716 5719 5721 5724 5726 5728 5730 5732 5734 5736 5738 5740 5742 5744 5745 5747 5748 5750 5751 5751 5752 5752 5753 5754 5754 5755 5755 5755 5754 5753 5752 5751 5750 5749 5747
5685 5687 5689 5692 5695 5698 5701 5703 5706 5708 5711 5713 5715 5717 5719 5721 5723 5725 5727 5729 5731 5733 5734 5735 5737 5738 5739 5740 5741 5742 5742 5743 5743 5744 5744 5744 5744 5743 5743 5742 5741 5740 5738 5736
5679 5681 5683 5686 5688 5691 5694 5696 5698 5701 5703 5705 5707 5709 5712 5714 5715 5717 5718 5720 5722 5724 5725 5726 5727 5728 5729 5730 5731 5732 5732 5732 5733 5733 5734 5734 5733 5733 5733 5732 5732 5731 5729 5728
5675 5677 5678 5680 5682 5685 5687 5689 5691 5693 5696 5698 5700 5702 5704 5706 5707 5709 5710 5712 5713 5714 5715 5716 5717 5718 5718 5719 5720 5721 5722 5722 5723 5723 5724 5724 5724 5724 5724 5723 5722 5721 5720 5719
5671 5672 5673 5675 5677 5679 5681 5683 5684 5686 5688 5691 5693 5694 5696 5698 5699 5701 5702 5703 5704 5705 5705 5706 5707 5707 5708 5709 5709 5710 5712 5713 5713 5714 5715 5715 5715 5715 5714 5714 5713 5712 5710 5709
5668 5668 5670 5671 5673 5674 5676 5677 5679 5681 5682 5684 5686 5687 5689 5690 5692 5693 5694 5695 5695 5696 5697 5697 5698 5698 5699 5700 5701 5701 5702 5704 5705 5705 5706 5706 5706 5706 5706 5705 5703 5702 5701 5700
5665 5666 5667 5668 5669 5670 5672 5673 5674 5675 5677 5678 5680 5681 5682 5683 5684 5685 5686 5687 5687 5688 5689 5690 5690 5691 5691 5692 5693 5694 5695 5696 5696 5696 5697 5697 5697 5697 5696 5695 5694 5693 5691 5690
5663 5663 5664 5665 5666 5667 5667 5668 5670 5671 5672 5673 5674 5675 5676 5677 5678 5679 5680 5680 5681 5682 5682 5683 5684 5684 5684 5685 5686 5687 5687 5687 5687 5688 5688 5688 5687 5687 5686 5685 5684 5683 5681 5680